Theta_e
321 321 321 321 322 322 322 322 323 324 324 324 323 324 324 324 323 324 324 324 324 324 324 325 325 326 326 326 327 325 319 302 301 300 301 302 310 327 330 334 337 335 325 305 304 303 301 299 302 300 300 300 299 299 299 303 298 300 292 285 285 284 284 286 288 288 291 292 291 292 291 293 291 290 295 295 294 293 291 292 293 293 293 294 292 295 296 297
320 321 320 320 321 322 321 321 322 323 323 323 323 324 324 324 323 323 323 323 324 324 324 325 325 325 326 325 326 325 310 303 302 301 303 314 331 336 337 337 336 332 319 307 303 298 300 299 298 298 299 298 300 299 301 300 302 293 286 285 288 284 290 291 289 290 290 292 290 290 289 292 294 294 294 294 290 290 292 292 291 294 296 295 293 296 296 298
320 320 320 320 321 321 321 321 322 322 323 322 323 324 323 323 323 323 323 324 324 323 323 325 325 325 325 326 325 323 312 305 299 299 306 330 334 334 338 337 331 329 307 305 303 300 299 298 297 298 296 296 295 298 298 298 302 294 291 287 286 288 289 290 291 292 292 293 294 293 291 289 291 293 293 294 292 289 291 293 292 292 296 297 295 293 296 297
320 320 320 320 320 321 321 321 321 322 322 323 322 323 323 322 323 324 323 323 324 323 323 324 325 325 325 325 326 313 301 296 294 297 301 323 329 337 339 336 331 319 304 304 301 298 298 298 296 298 296 296 292 298 298 298 298 294 293 288 290 289 290 294 292 294 294 292 292 292 289 289 291 290 292 290 292 295 294 295 296 297 296 297 295 294 295 296
320 320 320 320 320 320 320 321 321 322 322 322 322 322 322 322 323 323 323 323 323 323 323 323 324 325 325 325 323 304 299 292 296 299 301 330 336 338 339 337 328 304 304 300 301 298 298 297 297 296 295 292 292 295 295 295 295 294 295 295 293 289 291 295 293 291 291 290 291 288 290 296 291 289 290 292 292 295 297 295 295 298 299 297 295 294 294 295
320 320 320 320 320 320 320 320 321 321 322 322 322 322 322 322 323 323 323 323 323 323 323 323 324 324 325 325 306 304 297 288 300 303 334 337 337 338 336 331 321 302 303 300 299 297 301 299 297 296 293 292 292 293 290 296 297 293 293 294 295 292 294 293 292 290 290 291 290 290 293 291 292 294 288 291 294 299 302 296 295 296 297 297 295 293 294 295
320 321 320 320 320 320 320 320 321 321 321 321 321 322 322 322 322 322 322 322 323 323 323 323 323 324 324 321 299 297 297 296 295 303 331 335 336 335 333 329 319 304 302 300 299 301 295 295 296 292 290 291 289 291 291 294 296 295 293 290 294 294 296 297 297 295 291 291 294 293 290 292 294 293 290 292 296 299 301 296 296 295 293 293 293 294 296 296
321 321 320 320 320 320 320 320 320 320 321 321 321 321 322 322 322 322 322 322 322 323 323 323 323 324 322 303 303 294 295 297 299 307 331 333 326 323 316 307 306 303 302 300 298 296 294 294 296 292 292 293 290 293 292 293 294 294 294 292 293 293 294 295 293 291 291 292 294 291 292 296 296 295 290 292 295 298 299 298 295 295 293 291 293 294 295 295
321 321 320 320 320 319 319 319 320 320 321 321 321 321 322 322 322 322 322 322 322 322 323 323 322 323 321 300 296 294 294 300 299 303 319 316 312 309 307 307 304 304 300 297 298 297 298 294 295 294 293 291 291 293 291 292 291 293 297 293 290 292 292 293 291 290 290 292 290 292 293 295 294 291 292 296 298 300 299 297 295 293 292 292 293 294 294 295
321 321 320 320 320 319 319 319 319 320 320 321 321 321 322 322 321 321 321 322 321 322 322 323 322 322 305 299 296 292 298 300 305 313 311 310 307 305 302 301 303 300 300 297 295 296 297 292 298 295 295 294 292 293 289 292 290 290 291 291 292 293 291 290 290 290 289 288 286 292 293 294 291 292 293 294 296 295 294 293 289 290 292 293 293 293 293 295
321 321 320 320 319 319 319 319 319 319 320 320 321 321 321 321 321 321 321 321 321 321 322 322 322 313 303 298 295 294 301 306 305 311 309 308 305 303 302 303 302 300 298 295 297 297 296 293 296 295 299 293 292 291 291 292 291 291 291 289 290 289 289 289 288 291 289 292 288 293 293 293 289 289 293 298 296 294 293 294 294 290 292 293 292 292 293 294
321 320 320 320 320 320 319 319 319 319 320 320 320 321 321 321 321 321 321 321 321 322 321 321 321 311 300 296 295 298 303 305 306 307 307 305 302 301 300 303 303 302 299 295 295 297 297 297 297 296 291 294 291 290 290 289 292 291 290 291 290 288 291 294 291 293 289 291 287 290 289 288 289 288 296 297 296 293 292 293 294 294 294 293 292 291 291 293
321 321 320 320 320 320 319 318 319 319 319 319 320 320 321 321 321 321 321 321 321 321 321 321 317 311 300 294 298 302 302 301 305 304 302 301 300 300 299 299 302 297 298 296 296 297 296 297 298 296 294 295 288 291 291 292 291 290 287 286 290 289 289 292 288 286 288 290 287 289 285 281 290 294 295 296 294 291 290 292 294 294 294 294 293 291 292 293
321 321 321 321 320 318 318 318 318 319 319 319 320 320 321 320 321 321 321 320 321 321 320 320 310 303 296 292 296 305 302 300 304 304 302 303 302 302 301 300 299 298 300 299 297 298 296 296 298 297 294 294 292 295 293 288 287 290 286 287 285 284 286 290 291 286 289 288 289 290 286 285 290 294 297 294 291 290 292 293 293 293 293 294 294 293 293 294
321 321 321 320 318 317 317 318 318 319 319 319 320 320 320 320 320 320 321 320 321 322 322 314 303 297 291 296 300 304 316 302 302 301 303 302 300 300 301 301 299 297 297 298 300 297 297 298 298 296 293 293 293 293 288 282 281 283 286 282 279 283 283 289 291 288 289 287 286 289 285 288 291 294 297 290 289 288 289 291 292 292 293 294 294 294 293 294
322 321 320 318 318 318 317 317 317 318 319 319 320 319 320 320 320 321 320 320 320 321 314 305 302 294 290 291 299 314 304 302 300 301 301 305 302 301 299 298 297 298 298 297 297 296 295 297 295 291 293 292 291 282 279 284 284 279 285 283 285 281 283 285 292 288 290 288 288 291 288 284 286 291 293 291 292 288 289 290 291 292 292 293 294 294 295 296
320 319 319 318 318 318 317 317 317 318 319 319 319 319 320 320 320 319 321 319 317 317 308 299 302 301 292 295 303 297 297 301 303 302 302 301 302 299 299 298 297 296 296 296 296 298 293 297 291 292 287 289 285 285 285 279 282 283 281 282 281 283 284 283 286 293 286 290 285 287 285 288 291 290 291 293 293 288 288 291 293 294 294 295 294 293 295 296
319 319 318 318 318 318 317 318 318 318 319 319 319 319 315 318 320 317 315 312 313 311 306 305 300 296 296 298 295 296 300 300 302 299 299 299 299 299 296 294 293 294 295 294 296 294 293 292 289 288 285 286 286 285 283 281 283 283 281 280 282 280 282 286 283 286 284 287 285 284 286 288 290 291 291 293 294 293 292 293 294 294 294 295 294 294 295 296
320 320 319 319 318 318 318 318 318 319 319 319 320 317 316 316 302 304 306 302 298 295 292 292 292 291 291 294 296 294 303 304 301 301 301 301 299 295 296 294 295 297 292 291 291 292 288 289 289 289 286 287 286 288 287 288 287 286 285 284 281 282 283 282 287 290 288 288 284 284 286 289 290 290 292 293 294 293 293 294 294 293 293 294 294 295 295 296
321 321 320 320 319 319 319 318 318 319 319 316 309 301 296 295 290 296 295 299 297 294 294 292 299 293 295 295 296 299 302 302 301 299 301 302 301 298 295 293 292 291 290 290 290 289 291 287 286 284 289 290 290 289 291 291 289 285 284 282 284 284 285 286 288 290 286 285 286 288 288 288 289 290 291 293 293 292 293 293 294 294 294 294 295 295 295 296
321 321 321 321 320 320 319 319 319 318 319 311 300 294 291 291 288 287 291 294 298 297 296 296 297 299 299 298 296 300 299 297 298 299 301 303 298 300 295 293 291 289 288 287 289 290 290 286 285 289 291 292 288 288 289 288 286 285 284 282 285 282 285 288 289 290 284 285 281 284 288 288 289 291 292 293 292 291 293 294 295 295 295 295 295 296 296 297
321 321 321 320 320 319 319 319 318 318 317 299 298 295 293 293 295 295 291 291 293 293 294 298 297 296 299 300 298 298 298 296 295 299 303 302 298 297 293 292 287 291 286 287 288 286 285 285 288 290 291 285 284 285 285 286 286 284 285 284 282 284 286 288 289 291 287 283 285 285 285 287 288 290 292 292 293 294 294 294 295 295 296 296 296 296 296 296
320 321 321 320 320 319 319 319 318 318 304 300 297 295 296 299 297 297 297 290 290 294 294 293 293 294 297 299 297 298 296 295 294 295 300 300 295 295 291 290 289 285 286 287 288 285 283 284 289 291 290 288 286 282 283 284 283 283 282 280 283 285 282 284 284 282 283 285 285 286 286 288 290 291 292 294 294 294 294 294 295 296 295 295 296 297 295 295
320 320 320 320 320 319 319 319 318 307 301 298 298 299 299 297 296 299 296 290 290 292 295 296 295 293 294 295 298 299 296 292 293 293 300 299 296 292 292 290 286 285 288 288 289 288 288 287 288 289 287 287 287 285 284 283 285 284 285 284 284 284 286 285 284 283 284 285 282 284 286 288 289 288 288 291 292 292 293 293 294 295 296 296 297 295 295 295
320 320 320 319 319 320 318 319 303 301 301 300 299 300 296 296 296 298 296 291 287 289 295 294 294 294 294 298 298 295 293 294 292 293 299 299 291 292 290 289 287 287 288 289 288 286 287 288 286 286 286 285 285 284 284 285 284 285 282 285 287 288 286 284 285 284 280 281 279 282 282 285 284 286 287 289 287 287 290 290 291 293 295 295 292 294 295 295
320 319 319 319 320 319 320 307 302 301 303 300 301 298 295 295 295 297 293 286 285 287 292 291 298 295 299 293 297 293 294 291 292 292 297 297 298 294 290 290 289 288 287 286 287 286 287 289 289 287 285 284 283 284 284 286 286 283 283 285 288 287 285 283 283 282 277 276 282 281 279 281 282 285 286 285 284 288 287 288 292 293 294 291 292 293 293 294
320 320 320 320 320 320 312 304 305 303 304 302 301 297 295 297 297 299 291 285 284 290 288 293 295 293 297 293 294 293 288 286 294 295 295 298 297 295 290 287 288 286 287 285 283 284 285 285 285 287 285 284 283 282 286 286 285 282 282 283 284 283 283 283 282 283 281 280 282 283 282 278 282 283 286 288 285 287 289 290 291 292 292 291 292 293 292 293
320 320 320 320 320 319 313 310 310 307 306 304 300 297 297 296 297 298 291 281 280 291 290 290 293 298 298 294 291 290 290 289 287 293 294 294 295 293 291 284 289 286 286 286 283 285 286 284 284 283 284 283 284 289 285 288 286 281 284 282 283 283 283 281 282 280 278 279 279 280 281 279 279 284 282 285 284 287 287 290 292 293 292 292 292 293 294 293
320 319 319 319 320 320 314 312 311 309 308 303 301 299 300 298 294 290 286 280 291 287 301 292 301 296 291 294 292 286 289 288 288 289 291 294 295 291 288 285 286 284 284 288 287 285 284 287 284 286 284 283 285 284 284 288 285 284 283 282 281 281 280 281 280 280 279 276 278 279 282 278 282 287 282 281 284 284 287 291 292 292 291 291 293 293 293 293
317 319 319 319 318 315 312 311 310 310 305 304 302 302 302 299 296 289 285 279 293 287 292 293 293 289 288 287 287 287 290 287 287 289 290 291 292 292 291 287 287 287 288 286 285 285 286 288 286 285 285 287 284 284 283 287 286 283 284 285 282 280 278 277 277 278 277 274 280 281 282 282 279 284 283 283 284 286 289 288 290 289 288 290 291 291 293 292
314 316 318 318 314 314 312 308 312 308 306 304 303 304 302 300 293 287 282 290 297 294 292 291 288 290 288 287 285 287 288 285 289 289 289 290 291 287 288 290 287 281 280 282 284 287 286 286 286 285 287 284 284 284 283 282 282 286 285 280 280 283 276 277 268 275 274 276 280 281 282 283 279 280 282 281 281 282 286 287 289 289 288 290 290 290 290 290
313 314 316 317 316 317 312 311 310 308 307 307 309 305 303 292 292 285 286 299 290 292 289 288 286 286 286 287 286 286 286 288 286 288 286 285 284 286 286 285 285 280 279 277 282 280 282 284 286 288 288 289 285 286 281 282 285 285 281 284 279 273 271 270 271 270 270 278 278 280 282 279 281 287 284 284 287 285 284 288 289 289 289 287 288 290 291 290
313 314 315 316 315 314 315 312 310 309 309 309 306 304 295 288 283 290 288 291 291 293 292 291 289 290 289 289 289 288 289 289 289 288 287 285 285 285 284 286 285 288 285 282 279 281 283 280 283 286 288 288 288 284 281 282 283 283 283 279 276 272 269 267 263 264 269 275 276 279 281 281 285 285 289 291 294 295 291 287 287 289 290 289 290 290 291 291
313 314 312 314 316 316 313 311 311 311 309 308 304 298 291 284 284 293 288 290 294 292 293 291 290 289 289 290 290 288 291 290 288 289 289 286 285 283 285 286 285 288 288 281 282 280 280 284 283 285 285 287 290 289 289 286 282 285 283 285 282 278 272 270 270 278 279 279 277 277 277 275 274 281 283 290 289 284 283 286 288 286 286 286 287 287 288 288
312 313 314 314 314 317 311 312 311 311 309 305 299 294 286 286 289 286 286 285 288 290 294 292 291 289 290 288 287 288 293 292 289 287 287 287 286 283 283 285 287 287 284 285 285 278 283 284 284 289 287 288 288 290 287 283 284 283 282 282 279 282 281 281 283 279 282 277 273 273 278 277 283 285 286 283 284 286 286 285 286 287 285 285 287 289 289 288
310 309 314 312 312 315 312 312 312 312 308 303 294 288 287 289 284 287 291 292 290 291 290 291 287 287 284 284 285 288 292 290 289 288 286 286 286 285 284 284 287 289 287 285 285 281 283 280 284 286 285 286 287 284 288 288 281 282 284 281 285 284 285 281 282 283 278 275 278 281 279 283 285 290 288 285 286 287 285 285 286 287 286 283 286 287 287 288
302 307 305 309 311 314 313 312 312 310 307 301 293 288 293 291 293 288 295 293 293 289 290 289 288 289 285 283 284 282 287 289 286 287 285 287 287 287 284 285 288 289 292 292 285 289 285 287 287 284 285 286 284 285 286 284 286 284 280 284 285 285 284 282 277 276 277 277 279 285 282 283 282 281 285 283 283 285 285 285 281 282 281 284 288 287 288 290
301 303 305 305 310 314 313 312 312 308 303 296 290 294 292 292 294 297 292 292 293 293 291 288 290 292 285 286 285 284 287 287 287 286 283 288 289 290 284 286 288 290 291 292 287 286 289 282 288 286 286 287 285 287 286 286 287 285 284 286 284 280 279 281 275 275 276 276 279 282 284 283 285 285 289 289 291 288 286 284 283 286 286 287 286 287 288 288
301 301 296 302 308 314 312 313 310 304 297 292 290 291 295 297 294 292 294 294 295 294 290 290 290 291 290 285 287 286 288 286 287 284 286 288 286 290 289 289 290 288 289 290 287 286 287 282 284 287 286 286 284 284 279 283 287 286 287 284 285 283 281 279 281 279 281 277 279 279 284 281 289 289 290 289 287 284 285 284 284 284 286 286 286 288 290 292
297 296 294 305 310 313 313 312 305 301 296 288 291 292 294 291 294 292 293 297 294 294 291 293 292 291 291 291 290 289 287 289 288 287 288 290 290 294 289 293 289 289 290 290 288 290 284 288 280 287 286 286 283 284 283 285 282 283 283 281 285 283 284 284 283 281 281 279 279 278 278 284 290 294 293 292 285 283 285 288 287 288 286 287 288 289 291 292
300 296 296 310 311 312 312 306 298 293 293 295 297 295 295 294 292 292 296 296 296 298 295 291 290 291 291 290 291 290 287 288 288 289 287 287 290 287 292 293 291 291 288 289 289 287 284 283 282 286 285 284 286 286 287 287 288 284 286 284 286 284 282 280 279 285 282 281 278 279 277 285 291 296 295 295 288 284 285 285 287 286 287 290 294 296 290 288
296 288 295 311 312 312 306 296 295 296 293 293 293 296 294 302 296 296 293 294 295 294 294 294 292 292 291 292 293 289 288 286 289 289 288 290 293 293 294 294 294 292 290 285 287 289 291 283 283 283 286 287 289 289 286 287 287 285 287 286 288 287 286 282 278 281 283 282 285 283 281 282 292 292 294 293 294 289 284 284 286 288 291 292 289 287 287 286
293 290 302 308 312 310 302 294 297 294 293 295 299 298 296 294 292 292 293 293 293 294 292 293 294 292 293 293 291 291 292 287 290 289 289 288 292 296 295 295 292 292 293 287 289 287 291 278 278 283 287 288 291 290 284 284 286 285 285 284 284 284 286 285 285 284 282 283 283 281 280 282 291 293 294 294 293 292 294 289 288 289 286 285 286 285 285 285
292 292 294 303 310 305 298 288 289 291 294 297 297 296 298 295 293 293 293 292 294 291 293 292 291 295 292 293 291 290 293 286 290 292 289 291 289 292 289 291 293 292 293 287 290 290 285 285 283 281 282 283 285 286 284 283 284 283 283 285 286 287 285 285 283 282 279 281 283 280 276 282 290 291 292 292 293 293 294 291 285 283 284 284 284 284 284 284
289 291 293 294 302 303 292 296 293 291 293 293 294 292 294 295 296 297 296 293 296 294 291 290 294 291 290 292 290 289 289 289 286 288 289 287 289 288 289 290 292 289 290 290 292 291 286 286 283 278 277 275 275 276 277 277 281 282 283 285 287 286 285 284 281 283 279 282 284 280 280 286 291 292 292 293 292 290 288 284 284 284 282 283 282 282 283 283
282 278 285 292 297 296 295 298 295 293 290 291 291 293 295 292 295 294 296 295 298 294 295 293 289 290 287 288 286 287 288 289 287 285 286 284 285 286 286 288 288 287 291 291 288 288 284 283 285 285 283 281 283 285 287 286 284 283 283 283 284 285 285 286 285 282 279 283 282 284 285 285 287 289 288 283 283 283 283 283 281 281 281 282 282 281 282 282
285 283 283 278 291 293 290 294 293 295 290 294 287 291 290 291 292 292 294 289 292 295 292 293 291 290 287 289 288 288 290 289 289 288 287 288 286 284 285 285 286 287 290 288 288 284 282 282 285 285 285 285 287 286 287 287 284 286 285 285 288 287 287 285 282 280 286 282 278 286 287 285 285 288 280 280 279 280 282 282 280 280 280 280 280 280 282 281
278 280 286 288 285 282 286 285 289 288 290 291 288 292 289 288 288 286 288 291 289 289 289 287 291 293 292 290 288 285 286 287 287 285 285 282 283 284 283 284 284 287 286 283 286 285 283 282 285 286 284 286 286 286 287 286 286 286 286 286 285 287 286 283 284 286 286 281 279 285 286 284 286 282 278 277 279 278 280 281 280 280 280 280 280 279 279 280
282 282 283 287 282 285 285 286 285 286 286 288 286 289 287 287 286 287 286 286 287 285 291 285 287 285 285 286 286 284 286 283 283 283 282 281 280 281 278 281 284 284 283 282 283 285 284 280 284 284 282 282 283 284 285 284 283 284 284 285 285 285 285 285 285 286 286 284 285 285 285 285 282 278 280 279 280 280 280 282 282 280 280 280 280 279 279 279
278 280 279 286 285 283 283 283 283 283 282 286 284 286 288 287 287 288 287 287 285 287 289 286 282 284 284 284 284 282 283 284 283 282 283 279 278 283 278 280 280 281 282 280 283 284 285 278 284 281 279 279 282 283 283 283 283 281 283 283 283 284 284 285 285 285 285 284 285 285 284 284 279 281 278 282 279 281 281 279 281 279 280 280 280 279 279 279
285 288 289 282 279 280 280 279 280 281 281 284 283 285 287 286 286 285 284 289 287 285 284 281 283 281 283 283 283 282 284 283 282 282 283 283 278 283 280 278 284 277 280 278 283 283 283 277 283 280 276 275 280 280 280 281 280 279 279 280 280 280 278 280 280 282 281 280 282 282 281 281 277 280 280 280 279 278 278 279 279 279 279 280 280 280 280 280
282 282 286 283 276 282 278 280 277 278 274 280 284 284 283 282 281 284 282 287 284 284 283 282 283 282 280 282 280 283 283 283 283 285 285 285 285 283 283 282 283 281 279 279 282 279 280 279 276 276 273 273 278 279 278 278 276 273 274 277 279 279 280 281 282 282 279 280 278 278 277 276 277 280 277 277 278 278 278 279 279 279 279 279 280 280 281 281
Wind_Speed
12 13 13 13 13 14 14 14 14 14 14 14 14 14 13 13 13 12 12 12 12 12 13 13 13 13 12 10 9 8 7 2 1 0 0 9 6 5 6 6 12 10 7 5 5 5 1 1 2 3 3 2 2 1 1 1 1 1 1 3 2 5 3 6 5 9 1 1 4 4 1 2 6 3 1 1 1 1 3 3 5 5 7 5 2 0 2 4
12 12 12 13 13 14 14 14 14 14 14 14 14 13 14 13 13 13 13 12 12 12 12 12 13 13 12 11 8 7 3 1 0 0 11 3 2 3 3 8 11 10 10 5 6 4 5 0 0 2 3 1 2 0 1 1 0 3 2 2 8 5 7 8 5 6 1 7 4 3 2 2 8 1 2 2 3 2 5 5 3 7 10 6 2 2 5 7
11 12 12 13 14 14 14 14 14 14 15 15 15 14 14 14 14 14 14 13 13 13 13 13 13 13 12 10 9 5 2 2 1 2 4 5 2 3 5 8 12 10 5 3 4 7 3 7 5 4 3 1 5 1 2 0 1 2 4 4 7 8 5 5 4 6 9 3 6 7 4 2 4 1 1 2 7 3 8 10 6 6 12 11 5 3 5 7
11 12 13 13 14 14 15 15 14 15 15 15 15 15 15 15 15 13 14 14 14 14 14 14 13 13 12 10 8 2 1 1 0 1 2 6 3 2 7 10 11 7 7 6 5 5 4 8 5 4 1 1 3 0 0 3 2 1 2 4 5 3 2 6 9 10 8 1 3 4 2 4 6 6 1 2 5 10 11 11 12 13 13 13 7 6 5 8
11 12 13 13 14 14 15 15 14 15 15 15 15 16 15 15 16 15 15 15 15 14 14 14 14 14 12 10 7 1 3 4 1 1 2 3 3 4 7 8 8 3 3 8 9 6 6 5 3 3 2 2 1 1 3 1 2 4 9 5 5 1 2 7 7 6 4 3 3 2 5 10 1 1 5 5 7 13 9 8 10 14 14 9 8 8 5 7
11 12 12 13 14 14 15 15 15 15 15 15 15 15 16 16 16 16 17 16 16 15 14 14 14 15 13 9 1 0 3 3 1 1 2 5 6 7 8 9 8 7 9 4 3 4 6 2 4 1 0 1 4 5 2 2 3 5 3 6 6 6 6 1 2 4 3 2 2 4 5 5 5 7 4 7 11 17 15 6 8 11 10 8 3 5 6 8
10 11 12 13 14 15 15 15 15 15 15 16 16 16 16 17 17 16 16 17 16 15 14 14 13 14 14 4 0 2 3 6 1 5 6 7 8 9 9 8 8 5 4 4 3 4 1 3 2 2 3 0 3 4 5 2 0 2 8 1 7 5 11 9 5 1 3 4 8 3 5 8 10 12 1 8 13 19 20 6 8 8 5 3 5 8 12 14
9 8 9 10 13 14 15 15 15 15 16 16 16 17 16 17 17 17 16 16 16 15 14 14 13 12 12 1 0 1 1 5 8 1 6 9 9 9 10 5 5 4 4 6 6 3 4 5 6 3 1 5 3 6 1 1 1 4 7 4 5 1 7 7 5 5 6 10 8 4 7 19 11 9 3 8 11 17 18 11 7 8 8 6 8 9 10 10
7 7 8 8 10 13 15 15 15 15 15 16 16 16 17 16 16 16 16 16 15 15 14 13 12 11 4 1 3 2 5 6 6 7 7 9 7 8 9 4 2 6 4 3 1 6 6 5 1 5 6 1 2 2 2 2 8 6 13 1 3 3 6 6 5 6 7 7 3 2 14 17 13 6 15 19 16 22 14 11 8 7 8 9 12 12 10 12
9 9 9 9 10 13 14 15 16 16 16 16 17 17 16 17 16 16 16 15 14 14 14 12 10 10 3 2 1 4 7 6 1 6 7 9 8 8 4 4 7 6 5 2 4 5 6 5 8 5 2 1 4 3 1 6 5 3 3 4 6 7 6 5 6 5 5 5 5 7 11 16 3 4 14 6 12 3 3 8 3 3 8 10 9 9 10 11
11 11 11 11 10 12 15 15 16 16 17 18 18 18 17 17 17 16 16 15 13 13 11 10 8 5 0 1 3 10 4 5 1 4 8 9 10 9 7 7 6 6 5 2 5 7 3 5 3 3 1 5 4 2 3 4 1 1 1 5 8 5 7 8 5 11 1 7 10 10 12 11 5 2 17 17 7 1 6 10 10 6 9 10 8 9 8 9
10 11 12 13 13 13 15 16 16 17 18 18 19 19 18 18 18 17 17 16 15 11 10 8 4 1 1 1 8 9 3 2 5 4 6 7 5 5 4 7 6 7 8 5 5 4 6 4 7 3 3 1 2 1 3 4 0 1 2 6 9 5 10 10 6 8 9 7 5 7 2 5 5 8 20 17 6 1 3 9 13 11 10 10 8 8 8 12
9 10 13 14 14 14 16 16 17 18 19 20 20 20 20 20 19 18 17 15 11 10 8 4 3 1 1 5 10 5 1 4 6 7 4 3 4 4 2 2 5 4 6 5 3 5 6 8 4 3 3 2 2 2 1 2 1 1 1 1 10 7 10 10 4 2 6 3 7 6 9 6 13 19 17 11 6 4 3 9 12 11 10 10 8 7 9 10
9 9 11 12 13 15 16 16 17 18 19 20 21 22 22 22 21 20 17 14 12 9 2 4 3 1 1 7 6 1 1 5 7 5 4 2 5 1 3 4 3 1 0 2 0 3 5 2 4 2 1 3 3 1 1 4 2 4 3 1 4 7 10 4 1 3 1 3 9 3 9 6 11 17 21 7 5 6 7 9 11 9 9 10 10 7 10 12
9 10 9 14 15 14 15 16 16 18 19 20 22 23 23 23 22 18 14 10 6 4 7 6 1 2 1 8 3 4 6 2 3 3 7 6 4 1 0 1 3 2 1 3 3 2 4 6 4 1 3 0 1 2 6 1 3 1 3 6 3 6 7 14 8 6 9 1 3 5 9 13 11 15 21 1 2 2 5 8 11 10 10 11 10 10 10 14
7 7 11 14 14 14 14 15 17 18 20 21 23 23 21 20 16 12 6 5 3 6 3 1 1 3 2 8 1 4 1 2 4 2 2 4 6 3 4 4 2 3 1 2 3 3 2 3 1 3 1 1 2 3 2 4 5 3 5 6 10 3 7 9 12 3 10 3 2 11 12 4 8 14 15 8 2 4 5 9 11 12 12 13 11 10 12 14
7 11 11 11 13 13 14 15 17 18 20 22 24 21 17 11 8 7 8 5 3 2 1 1 1 1 1 4 1 2 5 3 2 2 2 1 4 7 7 4 1 3 4 4 3 3 3 2 1 1 3 2 2 4 1 3 8 7 1 7 4 7 3 5 9 12 3 8 4 6 7 13 12 8 9 15 11 3 6 12 16 15 14 14 12 11 14 16
10 10 10 11 12 13 14 16 17 19 21 21 22 17 12 9 1 4 5 6 2 3 0 1 2 1 9 3 7 5 1 0 3 3 3 2 4 7 5 3 1 5 4 2 2 4 2 1 3 6 2 1 2 4 6 10 10 9 4 4 8 4 7 13 3 5 2 1 4 2 11 16 14 12 12 14 17 16 15 17 17 16 15 16 14 14 18 18
8 7 8 11 12 12 14 16 17 19 20 24 17 12 2 3 2 1 4 1 1 1 1 2 3 4 6 3 6 5 1 2 3 2 1 5 1 3 4 4 5 8 2 2 2 4 2 3 3 1 5 6 10 12 14 16 9 14 10 8 3 7 8 6 13 12 7 11 6 7 15 15 15 14 14 15 13 15 19 18 15 15 14 15 16 16 16 16
8 8 10 10 10 9 13 15 17 18 21 15 8 4 2 4 4 0 5 2 2 4 1 4 6 3 7 6 2 0 0 1 2 3 2 2 7 4 4 2 3 5 6 6 1 4 2 7 8 9 13 16 15 14 17 17 8 1 0 4 11 12 11 8 12 12 1 6 10 16 19 16 16 15 16 16 13 12 19 21 20 16 14 14 16 17 17 17
8 8 8 8 9 7 12 14 16 17 20 8 4 3 3 1 2 4 5 9 8 5 6 6 12 9 10 1 2 0 0 1 1 1 2 1 2 9 3 3 3 2 4 3 6 1 2 8 9 14 20 17 6 8 10 7 2 5 6 6 12 5 15 11 10 8 2 1 3 6 17 19 16 14 16 15 13 17 18 23 24 22 16 14 16 19 20 18
8 7 8 8 6 11 12 13 14 16 13 1 5 4 1 1 0 1 2 7 4 7 8 14 2 6 6 10 5 3 4 2 1 2 1 2 5 6 3 5 5 11 1 3 1 1 6 11 14 19 9 6 2 4 4 7 8 7 9 7 8 10 11 12 14 12 5 2 12 7 16 15 12 15 17 17 20 19 15 16 21 21 21 17 16 18 16 11
9 8 7 7 8 10 11 12 12 11 5 4 3 2 0 0 0 0 1 2 8 4 3 6 6 12 13 8 3 5 7 10 12 3 6 4 2 5 5 5 5 2 3 6 11 6 6 6 18 14 1 4 1 4 4 2 4 7 7 4 13 3 2 10 2 2 1 1 10 11 21 20 12 17 22 22 20 15 12 13 20 21 17 19 24 14 6 11
9 8 8 8 6 8 10 11 10 3 3 1 2 0 0 2 3 1 0 4 6 5 9 6 4 4 8 6 3 8 9 4 3 6 3 5 9 3 4 6 5 3 9 12 14 13 16 4 4 7 5 5 8 3 3 2 11 7 11 8 8 9 13 10 6 6 7 5 3 9 15 16 10 10 7 13 10 10 15 14 15 19 18 22 15 11 11 12
10 9 8 7 6 5 8 9 3 1 2 0 0 1 2 3 2 3 2 6 2 5 2 3 4 3 5 2 1 4 2 0 5 1 4 7 6 3 3 1 4 10 7 10 10 10 11 5 2 3 5 5 5 6 6 7 13 8 5 10 18 16 10 7 9 7 6 8 5 5 12 14 1 4 8 7 1 5 8 8 15 21 23 15 6 13 10 8
10 10 9 8 7 5 6 2 0 1 0 0 1 0 2 1 2 1 2 1 9 3 3 3 2 1 1 0 1 4 3 4 1 4 2 3 1 4 2 1 3 8 7 4 7 5 6 2 5 6 5 5 5 6 6 9 14 7 8 14 16 11 8 7 11 4 5 2 2 2 2 20 5 4 7 7 4 11 5 7 19 20 16 6 8 9 8 10
9 9 8 8 7 3 2 1 0 0 3 1 1 2 1 2 0 1 2 3 6 3 3 1 1 1 1 0 1 2 1 3 2 3 1 3 4 0 3 5 1 1 2 2 3 6 2 2 3 1 4 4 4 5 9 12 6 9 2 6 7 6 7 7 4 6 8 1 3 2 4 5 24 1 7 7 3 8 10 14 15 16 8 7 9 9 10 9
8 8 8 7 8 5 1 1 1 1 2 0 2 3 2 2 1 0 1 6 5 1 1 1 0 1 1 1 6 1 1 0 1 0 1 2 1 2 1 4 8 6 2 4 11 1 6 2 3 3 2 4 7 13 2 12 7 5 1 6 4 7 6 3 5 5 2 4 9 2 3 4 10 5 3 5 4 9 12 16 16 14 8 6 9 11 11 8
8 7 7 6 7 7 2 1 2 2 1 3 3 3 3 2 1 2 3 4 2 2 0 1 3 0 2 0 0 1 0 1 0 1 3 1 2 2 1 4 4 3 3 8 12 2 2 2 6 8 7 8 8 1 9 11 6 4 4 5 5 5 5 3 4 3 1 1 11 7 6 5 18 11 4 4 0 6 10 16 16 8 5 6 8 9 8 7
8 7 6 3 4 2 1 2 3 0 4 5 4 4 2 1 0 1 1 8 2 1 1 1 1 1 2 3 1 3 1 2 2 1 2 2 2 2 1 2 2 1 5 2 5 7 2 3 6 5 8 6 4 0 4 9 4 3 3 2 3 5 3 3 5 2 1 5 10 14 11 7 12 5 8 8 8 8 7 4 7 8 5 7 5 6 7 7
9 8 6 7 3 3 4 2 4 5 5 5 3 2 1 2 2 3 12 3 3 3 1 1 1 3 3 1 1 1 0 0 0 1 0 1 1 2 1 1 3 2 1 2 7 7 2 1 1 4 3 4 4 3 2 1 1 2 1 2 3 4 5 2 3 2 2 11 4 13 15 14 13 3 5 5 2 3 4 5 6 8 8 6 5 5 5 2
7 7 5 5 1 3 4 2 3 7 7 7 3 3 2 3 1 10 5 1 0 2 1 1 1 1 1 1 2 1 2 1 0 1 4 2 3 4 5 7 3 0 4 2 6 3 3 9 3 0 4 9 3 1 2 3 1 3 3 0 1 6 6 3 2 1 5 11 2 4 7 3 20 10 3 6 8 6 7 8 7 5 8 6 5 6 5 5
7 4 4 3 3 2 2 3 6 6 6 4 4 2 2 1 9 6 3 2 3 1 1 3 0 0 1 1 2 1 0 1 0 0 3 0 2 5 3 4 4 4 8 1 2 5 8 1 1 5 1 5 7 7 1 1 6 7 6 5 4 3 3 5 5 2 6 6 4 5 2 10 7 5 10 16 18 16 8 8 8 7 9 6 6 7 7 7
9 3 1 1 5 5 3 7 6 7 6 1 3 2 5 4 10 5 3 4 6 2 1 1 0 1 1 4 1 3 2 2 3 1 1 0 1 2 3 4 4 3 1 1 4 1 8 9 5 5 4 5 11 12 15 5 8 12 2 11 10 8 4 5 4 10 9 6 2 3 4 9 3 6 2 11 5 3 3 5 6 5 5 5 6 6 7 5
10 2 1 1 3 4 7 6 9 6 5 4 1 4 6 13 4 3 2 3 3 3 5 0 1 1 4 1 1 3 5 3 1 3 2 3 4 4 4 4 3 3 1 1 3 2 9 11 6 7 1 7 12 7 3 5 4 3 3 3 2 9 5 10 5 4 8 3 2 2 8 3 6 1 4 5 5 5 5 2 2 3 3 4 5 7 6 5
4 3 1 2 2 3 8 6 7 5 6 4 3 5 14 7 2 2 3 2 0 1 2 4 1 1 4 3 2 1 3 4 2 1 1 4 2 3 3 3 6 13 8 7 3 3 0 6 1 2 3 6 5 2 3 4 6 3 5 6 9 3 4 4 5 5 1 1 15 4 7 10 7 12 5 4 2 4 4 4 4 6 5 3 4 7 5 4
4 4 2 3 3 5 8 8 7 7 5 5 5 12 8 3 6 2 3 2 2 2 1 5 2 4 1 3 2 1 1 1 3 2 5 2 5 7 3 6 4 6 12 10 5 4 8 12 1 5 4 4 1 1 1 2 3 7 2 8 1 1 2 3 6 2 4 9 10 7 16 11 4 14 2 4 5 4 5 1 3 4 3 4 7 3 4 5
3 2 4 3 6 7 9 9 9 5 3 4 11 17 3 5 2 6 1 2 0 1 1 3 6 3 4 4 4 3 1 4 2 3 2 4 4 5 4 2 4 10 14 2 2 3 1 8 7 4 4 1 1 1 5 0 0 4 5 1 2 5 4 2 4 6 7 11 9 7 13 16 9 17 10 12 17 9 4 4 4 3 2 6 5 5 4 5
1 1 5 4 1 10 9 11 9 8 4 7 10 13 3 10 4 3 7 6 2 1 4 4 6 2 2 4 3 0 3 4 2 3 1 3 3 5 8 5 1 5 2 6 3 1 1 5 5 2 2 1 2 3 5 3 1 2 1 2 0 2 3 2 6 2 0 11 7 11 9 13 8 10 9 9 7 5 6 5 4 6 7 4 5 5 6 9
1 1 5 1 1 9 10 10 6 7 5 13 11 11 2 1 2 3 4 6 4 4 4 7 4 10 6 8 2 7 3 4 3 6 5 2 8 1 1 3 2 1 1 4 3 1 1 1 10 1 1 2 4 4 7 9 7 1 1 4 1 2 2 1 2 2 6 8 8 9 10 7 12 13 14 13 3 4 4 5 5 7 5 6 6 6 6 10
1 1 3 2 5 8 10 7 5 10 10 5 10 9 5 6 1 2 5 4 2 3 6 3 2 7 5 6 8 4 3 4 4 7 3 5 4 7 3 4 3 3 1 3 2 1 1 2 10 9 10 9 11 5 8 7 9 7 10 9 11 7 7 10 12 3 4 6 8 8 16 8 10 11 17 14 1 2 3 3 6 6 7 8 9 13 19 17
2 2 3 2 6 12 9 9 6 3 3 9 10 5 6 4 5 6 2 1 5 4 2 3 5 7 5 9 8 3 2 4 6 5 3 11 4 9 4 4 2 4 3 4 6 6 4 1 1 9 11 15 7 4 3 5 3 4 7 8 8 8 6 9 14 9 5 9 11 15 15 12 1 4 7 6 6 2 2 1 3 7 11 15 17 16 15 14
1 4 1 3 5 10 7 9 5 5 6 3 3 5 1 3 2 1 2 2 3 3 3 4 6 6 6 8 4 7 5 7 7 10 5 4 7 10 6 7 5 3 2 5 3 1 6 1 2 7 7 10 15 5 2 2 4 0 3 3 3 9 11 13 13 5 9 9 11 9 13 5 2 4 9 8 8 9 7 0 2 10 16 15 15 16 15 15
3 4 4 1 3 1 8 10 10 12 9 7 9 9 5 3 2 5 5 3 4 2 6 4 2 6 6 3 4 8 6 8 7 16 9 6 5 6 11 8 4 0 1 4 1 4 1 3 3 7 6 4 6 6 2 3 2 1 4 5 6 6 4 5 3 1 6 7 12 13 19 6 1 3 6 8 10 9 11 18 19 14 10 10 11 11 11 12
1 3 4 5 2 2 6 3 8 6 8 10 9 12 9 6 5 11 8 5 1 5 2 3 5 1 3 1 4 3 1 10 4 4 2 2 2 2 9 9 7 3 4 3 1 1 3 4 3 7 9 11 12 11 9 3 4 2 2 4 5 7 12 7 10 8 14 6 13 13 13 9 8 5 7 10 10 14 14 12 11 12 10 11 10 10 11 11
1 1 3 1 2 1 5 5 2 2 3 9 10 11 10 11 4 3 7 10 10 5 7 5 1 1 2 3 4 4 6 4 8 2 1 1 1 2 2 7 8 4 3 9 11 2 2 2 6 11 14 16 14 13 4 1 1 3 4 3 5 5 4 8 9 11 13 11 14 13 14 15 13 14 7 14 11 12 14 14 12 12 11 8 8 10 10 10
2 1 1 2 2 3 7 2 3 2 4 1 4 1 10 9 5 4 7 3 3 8 3 7 5 5 2 6 8 11 12 10 7 8 9 9 1 1 3 5 5 9 5 4 7 2 1 3 6 10 12 12 13 15 14 12 14 11 12 13 12 12 12 14 12 14 9 12 19 6 13 15 11 7 9 11 12 10 10 10 10 8 8 7 6 6 8 11
1 4 1 3 1 3 1 5 3 5 6 4 4 4 7 8 5 5 3 1 1 2 3 4 4 9 14 14 7 8 2 10 5 6 2 3 2 4 5 3 3 4 7 2 3 2 1 5 2 6 11 8 7 9 9 11 9 10 10 11 12 13 14 16 18 17 14 15 19 13 15 19 15 4 6 7 8 7 7 7 8 7 5 6 6 8 9 9
2 2 1 3 1 3 2 4 7 4 5 5 2 4 9 11 13 7 4 5 2 2 3 8 2 6 7 9 5 6 3 8 5 2 2 1 1 1 2 3 1 6 9 6 4 0 2 5 6 4 9 6 9 9 9 11 12 11 10 9 11 11 16 16 18 13 14 18 18 19 17 20 4 2 4 4 2 5 6 6 4 9 10 9 8 8 8 7
2 1 2 3 0 4 4 2 2 4 4 5 5 7 8 6 10 5 1 4 6 7 1 6 1 3 3 6 6 4 4 7 4 3 2 5 2 2 1 2 4 3 5 4 3 5 1 5 12 5 8 7 8 9 10 10 9 12 13 12 15 15 18 16 14 16 19 21 15 17 13 10 5 3 1 2 1 1 2 5 3 4 6 7 8 8 7 7
2 1 1 2 3 2 1 1 1 1 3 2 7 4 9 7 7 5 5 3 2 1 6 4 6 3 2 1 2 4 3 4 7 7 5 3 1 2 3 4 3 5 7 1 0 2 2 4 4 6 9 10 9 12 13 13 14 15 16 17 21 21 21 15 15 14 15 18 15 15 14 7 2 1 1 3 3 8 5 7 6 3 6 5 7 8 6 8
1 2 2 1 2 4 2 2 0 2 5 3 2 3 2 1 3 5 2 4 10 11 8 5 4 4 4 2 3 1 1 2 2 5 4 6 6 6 6 7 6 4 2 4 2 4 2 4 6 9 12 13 12 15 14 13 12 14 14 19 22 18 18 18 19 7 4 1 6 11 4 3 4 3 3 5 4 8 4 6 6 3 2 3 5 6 6 8
Wind_Direction
16 16 15 13 12 11 9 7 4 4 4 4 3 1 359 358 355 353 350 348 343 343 341 338 340 339 337 339 341 350 347 91 50 23 212 240 200 196 165 119 138 141 134 89 91 106 49 33 93 349 41 53 308 81 270 46 101 63 114 122 263 205 162 211 191 192 220 225 277 325 120 340 306 319 268 66 342 247 283 272 282 290 254 220 229 322 132 144
13 11 10 9 8 7 7 4 2 0 0 1 0 357 355 353 352 348 347 343 343 341 340 336 335 340 341 335 343 348 25 77 79 32 229 216 89 154 162 137 138 141 112 100 142 138 122 256 43 56 86 95 333 95 360 212 100 112 128 112 234 186 238 163 203 213 150 253 231 270 273 232 258 240 295 349 287 311 306 269 261 266 276 279 274 115 131 152
8 6 5 5 5 1 2 0 358 358 358 357 356 354 351 351 350 346 342 341 340 341 340 336 337 339 340 340 328 359 333 357 33 284 264 12 313 203 161 147 151 156 134 153 198 147 149 191 173 97 9 109 2 199 26 227 135 216 125 228 247 213 234 224 197 228 201 259 297 303 300 169 255 141 313 231 275 316 260 265 284 255 259 256 230 136 166 176
3 2 1 2 360 358 357 356 355 353 354 353 351 351 349 347 345 343 341 339 340 341 339 340 336 339 339 333 335 321 56 35 316 247 288 289 299 191 156 153 152 124 86 58 132 107 106 93 79 93 75 85 301 17 150 240 126 262 105 202 231 215 197 251 207 234 243 195 263 258 307 316 269 228 147 216 337 268 249 235 233 252 248 249 237 194 176 193
356 356 357 355 357 355 353 352 350 351 350 349 348 347 346 343 341 340 339 338 341 340 340 338 338 337 337 335 334 93 22 43 270 238 265 313 53 120 137 137 134 86 102 144 84 62 79 108 97 49 89 212 349 17 247 238 185 113 209 225 206 122 224 244 224 213 204 179 209 291 321 264 26 99 217 192 224 264 244 243 218 235 249 243 240 216 186 195
350 351 352 351 351 352 351 348 348 347 346 346 345 343 342 340 339 338 338 338 338 339 338 340 337 336 335 332 30 77 65 333 238 280 105 90 96 92 107 112 105 105 106 73 104 130 101 36 85 104 20 94 200 174 264 168 142 242 268 254 232 209 240 232 217 212 178 232 213 301 251 328 269 280 195 170 212 254 256 230 218 230 235 240 230 143 196 206
342 344 346 347 348 348 347 346 343 344 343 342 341 340 338 339 335 336 335 335 334 334 339 338 337 337 334 336 87 85 148 253 329 244 124 109 105 106 103 108 100 90 90 90 102 142 116 112 121 191 98 9 280 203 249 176 320 230 259 228 273 200 229 248 265 191 238 232 257 217 339 292 279 294 190 188 231 245 266 227 243 241 247 216 198 197 209 207
334 334 340 341 345 347 345 342 343 340 340 339 337 337 335 333 334 331 331 331 331 330 333 337 337 332 355 35 347 346 43 247 243 267 149 109 100 104 102 70 98 104 125 158 149 135 122 144 182 130 185 180 229 160 238 121 113 206 269 215 266 171 243 264 258 273 269 262 260 309 284 266 255 250 332 237 241 259 262 262 243 258 255 242 235 230 225 224
320 334 340 342 344 345 342 341 339 338 335 334 334 331 331 329 328 327 326 325 328 325 329 334 335 335 334 78 115 319 262 238 213 175 137 119 128 122 132 127 131 133 149 115 163 164 137 242 180 183 247 211 189 182 211 175 288 207 233 220 278 267 277 266 302 253 246 268 189 254 256 266 274 276 259 254 249 252 264 283 263 251 258 246 237 235 222 226
329 334 339 341 340 341 340 339 336 335 333 331 328 328 325 326 324 323 321 322 320 323 321 329 336 326 22 83 49 267 261 193 94 134 129 125 121 123 75 137 139 130 127 198 100 129 187 210 181 208 133 195 144 207 92 152 236 170 234 242 257 265 293 280 220 258 218 232 167 194 255 268 283 70 282 134 234 244 263 263 285 234 244 247 239 238 230 226
328 332 335 337 335 335 338 336 334 332 331 327 325 323 323 321 321 318 317 314 317 312 317 321 338 357 180 124 195 252 232 88 98 127 132 131 123 134 193 163 162 145 131 113 191 191 182 149 162 100 126 223 126 257 168 219 160 240 235 306 280 282 257 245 237 260 154 277 188 199 244 270 297 143 254 266 247 312 284 284 282 258 257 259 244 239 237 230
324 329 331 333 332 333 335 334 332 329 328 325 322 320 317 317 316 314 311 310 306 306 307 313 341 128 80 116 219 229 327 142 118 121 136 136 139 202 176 162 168 163 158 174 229 227 172 170 135 145 223 124 267 130 250 239 360 231 31 316 288 335 319 269 238 251 159 249 153 170 234 304 273 224 248 248 280 156 256 276 279 279 268 264 255 245 240 232
316 325 329 328 328 334 334 331 330 329 326 324 321 318 316 316 312 310 306 304 299 293 297 292 79 261 79 300 235 237 15 122 114 113 92 69 96 57 75 159 162 152 168 148 206 218 181 144 147 161 214 143 176 237 152 84 270 24 60 161 319 324 302 289 156 34 150 249 146 144 284 212 254 259 258 264 273 272 265 267 268 272 278 275 268 246 251 248
309 315 318 321 330 330 329 329 328 327 325 321 319 317 317 314 312 307 302 291 290 286 304 91 100 125 106 244 268 261 170 119 107 107 155 162 109 354 41 35 87 73 238 165 149 121 136 142 133 178 110 179 256 276 15 336 26 269 251 115 252 357 270 279 157 119 274 199 175 120 253 244 256 271 276 268 222 235 256 265 272 269 271 273 272 262 254 258
308 308 321 329 327 326 327 327 326 324 322 320 317 317 316 313 311 309 299 285 271 246 183 102 91 90 101 268 244 290 150 136 149 222 180 141 130 60 28 61 65 25 111 114 137 93 129 112 93 116 250 321 38 333 290 22 355 340 1 276 327 196 277 297 291 184 235 308 203 135 258 253 248 258 273 360 117 143 232 255 267 270 268 268 272 275 268 261
306 330 337 323 324 324 326 326 324 322 321 318 318 316 313 313 313 314 287 244 183 127 133 119 27 105 60 294 235 133 91 194 261 201 233 137 161 165 167 120 114 45 25 20 75 114 57 101 118 190 275 351 152 99 26 6 331 351 199 273 267 228 263 344 287 175 214 167 252 178 248 288 282 255 269 284 225 194 233 265 264 267 266 269 269 269 273 277
339 320 319 322 321 323 324 324 323 322 319 318 319 314 313 318 356 40 54 74 105 94 137 176 155 142 220 236 137 272 241 233 143 44 67 22 147 140 112 87 107 86 65 62 31 92 347 108 303 23 34 183 141 111 341 344 279 274 123 225 202 243 285 262 305 288 163 172 219 241 244 242 260 281 292 302 284 243 255 266 271 273 274 271 270 267 266 265
309 314 317 318 320 323 324 324 325 324 323 320 321 313 311 319 26 77 68 53 77 131 26 142 132 32 274 329 270 247 15 235 52 154 76 300 126 129 113 116 70 107 96 43 354 142 304 172 46 196 354 57 130 129 161 234 213 234 237 256 277 255 235 253 313 263 69 139 222 294 245 262 269 280 283 271 285 286 273 270 269 270 270 270 264 259 259 260
285 299 309 318 321 322 324 324 326 327 325 321 319 307 300 29 31 114 69 360 87 5 36 228 130 166 222 234 293 12 123 153 130 88 192 119 47 102 71 79 101 122 146 104 263 151 354 66 35 89 237 235 223 186 194 226 217 232 229 250 265 270 245 224 239 262 273 282 286 241 258 264 267 268 272 275 266 278 280 276 273 265 262 265 262 257 258 258
274 283 303 309 315 313 319 326 326 327 329 330 351 2 17 19 4 340 344 15 229 192 202 220 233 304 322 295 228 302 276 360 139 333 167 283 122 98 35 92 35 54 121 194 152 198 134 163 178 189 217 224 225 190 210 226 233 329 164 234 253 259 273 264 269 268 61 309 239 261 264 261 263 263 266 267 274 276 281 280 275 269 261 259 264 262 258 256
274 271 280 287 286 307 322 326 328 327 328 329 329 53 59 153 26 312 311 257 249 266 263 249 207 225 238 327 297 125 132 281 66 175 204 134 117 120 212 93 139 175 223 159 152 265 101 205 216 210 218 226 216 201 228 264 312 245 264 260 264 238 270 255 282 282 77 258 261 220 272 268 266 268 265 268 268 259 255 271 276 275 268 260 261 265 263 260
271 278 281 286 312 314 319 324 326 327 328 35 45 75 162 212 196 230 112 307 315 244 234 247 289 280 272 252 215 152 74 316 269 202 255 142 180 156 256 144 161 204 110 111 16 169 206 211 220 225 221 59 102 190 207 209 237 251 239 262 288 262 267 277 265 282 286 180 277 266 268 266 263 257 259 253 250 250 239 244 263 271 275 273 267 259 270 295
253 262 274 289 289 308 318 321 321 338 360 28 33 65 147 233 80 284 72 254 263 255 237 254 240 232 257 266 238 124 230 224 249 182 199 139 94 221 143 148 195 105 153 173 200 202 263 255 240 240 243 279 320 90 125 189 244 235 251 268 247 277 324 295 220 360 311 211 299 299 292 286 261 248 247 247 249 251 253 241 252 257 263 267 261 267 305 284
257 254 257 265 277 306 312 317 316 26 21 126 102 164 234 117 115 93 79 245 277 301 219 227 207 204 223 229 227 166 198 256 171 255 228 138 156 180 128 175 151 143 199 202 215 211 224 224 241 224 206 201 238 196 155 208 260 208 220 236 277 255 241 239 275 333 310 280 253 308 289 279 219 241 246 265 247 255 260 250 255 267 259 249 269 297 254 264
246 245 246 248 253 265 297 314 27 292 163 70 324 243 195 181 142 164 16 308 315 276 308 309 160 249 229 31 85 141 251 292 217 213 190 149 143 89 227 159 117 222 201 211 237 255 266 265 111 111 188 195 212 256 219 201 263 250 213 196 235 248 270 263 281 349 356 313 351 35 330 304 210 177 227 268 20 225 248 241 251 251 252 260 272 261 274 244
246 243 239 233 236 249 284 338 312 169 48 180 224 190 176 123 106 124 93 357 283 263 357 235 136 316 78 71 87 193 111 250 293 239 171 231 158 149 85 211 158 236 197 206 225 226 227 246 184 205 173 190 192 222 231 178 245 279 264 207 230 243 244 260 277 7 290 230 289 46 116 293 160 228 244 247 232 245 266 213 240 242 250 276 264 273 271 278
254 250 243 232 223 239 339 292 180 128 11 329 204 139 172 103 84 156 350 299 313 200 163 269 51 246 150 279 148 125 174 272 298 27 36 347 190 324 156 214 25 329 150 156 18 272 176 296 196 197 166 155 164 253 234 179 228 265 241 185 210 219 222 236 222 193 248 270 280 163 147 247 301 318 220 220 193 254 258 255 257 263 282 290 279 273 281 279
258 255 246 230 207 180 210 76 22 356 224 196 113 101 91 125 85 104 70 322 287 341 94 284 215 321 84 325 67 135 208 262 37 290 219 289 85 341 182 205 194 173 177 104 237 245 160 207 165 145 147 149 199 226 110 160 172 223 250 151 182 204 209 157 170 201 223 26 304 188 93 290 255 271 13 132 137 245 248 255 260 263 262 261 271 281 280 285
273 260 252 230 197 183 88 154 144 214 178 126 109 93 91 91 79 86 114 242 237 80 106 71 309 20 348 349 80 82 298 2 150 268 314 351 16 142 227 230 178 196 251 177 239 244 294 201 207 163 142 210 222 188 166 165 201 263 114 78 73 70 64 133 128 135 323 26 264 171 176 225 278 284 108 3 142 250 243 246 251 265 293 275 277 284 294 313
3 322 272 198 130 98 21 62 221 247 106 102 110 125 91 357 323 50 294 244 51 304 129 234 107 251 52 100 303 359 331 328 141 332 24 151 330 37 10 147 133 158 249 311 265 242 233 358 160 122 197 214 159 173 172 192 180 119 87 67 3 34 37 23 64 94 52 259 255 170 196 164 274 293 174 138 199 202 239 276 303 312 295 272 263 273 287 306
2 358 340 157 161 185 120 263 215 140 121 105 119 70 53 37 167 162 237 226 7 235 30 30 206 3 114 123 262 308 107 298 287 93 85 350 5 45 10 291 45 45 28 332 280 274 254 85 176 253 80 86 108 103 46 57 126 145 219 132 17 300 16 32 338 32 204 272 240 184 179 182 223 279 286 235 270 224 187 239 263 289 280 271 277 272 265 289
351 342 343 174 200 151 164 249 161 135 134 149 118 58 40 265 40 222 221 16 104 279 125 270 11 107 80 349 135 215 185 342 211 121 158 154 142 157 202 183 169 207 310 208 259 25 266 211 225 255 221 156 162 161 312 33 56 134 99 47 260 272 28 312 25 308 183 233 286 203 163 346 245 245 259 281 269 271 221 216 241 237 266 272 272 277 303 311
345 345 322 218 149 182 255 121 126 138 137 156 84 99 89 144 250 236 275 358 281 53 290 86 188 103 180 52 272 300 63 202 156 145 109 44 140 263 274 210 197 181 258 282 293 344 278 270 145 233 348 213 133 180 254 282 199 130 162 167 122 272 248 256 269 259 293 294 259 162 217 245 283 297 225 245 250 252 237 219 236 232 231 258 299 309 310 313
337 354 13 209 194 197 135 145 145 137 118 58 91 56 105 235 238 67 205 220 238 1 67 75 75 55 141 216 244 164 311 224 128 184 154 214 53 274 289 259 166 279 152 322 278 201 317 298 246 139 244 186 180 198 199 177 155 196 98 158 193 172 162 253 199 244 240 238 349 272 123 236 104 239 233 223 262 343 274 239 242 248 262 274 273 292 294 292
324 315 225 230 220 197 144 164 152 143 116 116 61 170 219 243 263 231 237 270 292 326 303 324 41 40 293 273 277 246 201 297 137 116 150 149 246 190 202 213 241 120 75 9 244 72 217 247 253 209 353 151 182 226 108 101 91 192 166 66 49 240 133 236 227 240 284 331 318 219 217 211 218 271 275 229 267 290 276 331 5 312 294 318 317 291 284 298
357 332 229 242 184 193 149 161 156 148 134 138 162 208 226 212 235 174 237 160 245 202 277 346 101 303 246 283 311 257 316 186 289 123 258 185 207 217 211 218 180 185 161 189 177 242 286 270 274 306 69 185 202 61 213 142 230 214 105 199 218 150 155 291 320 260 213 354 256 218 286 271 299 274 248 306 325 291 313 289 276 271 279 310 264 253 271 309
360 326 300 202 204 172 161 154 161 141 155 175 209 245 226 259 190 159 267 174 249 142 55 266 251 213 211 264 230 6 245 74 259 146 265 165 290 194 214 257 182 193 204 191 272 205 247 275 177 126 248 260 155 107 75 16 140 107 181 236 64 142 117 161 236 357 234 241 268 269 266 277 337 284 42 19 41 351 9 346 295 279 260 282 251 293 323 293
327 282 252 239 211 160 156 162 138 137 132 177 221 238 93 235 218 191 171 118 326 356 184 201 272 172 276 252 279 187 279 165 259 102 240 182 255 134 132 232 218 190 216 254 187 283 93 293 268 211 177 280 13 99 313 318 278 191 192 284 140 244 264 266 80 247 242 245 262 224 274 274 247 263 285 300 294 296 282 294 345 311 297 249 281 306 298 285
295 330 307 257 263 153 153 153 148 141 131 210 224 254 188 237 151 183 192 164 168 135 235 233 233 284 239 232 237 222 188 203 164 201 217 242 227 200 206 168 269 198 286 143 187 291 14 257 288 47 109 215 18 107 225 213 330 46 8 332 193 91 232 164 197 215 274 265 252 255 245 264 258 262 266 265 264 297 301 326 272 254 247 276 292 290 312 323
135 26 258 334 123 136 146 145 132 157 188 214 222 233 141 341 246 254 242 191 237 190 248 251 202 258 245 248 186 246 264 217 179 240 200 272 239 284 180 338 179 9 355 189 152 157 302 145 258 210 318 20 259 182 210 174 196 207 69 268 262 209 224 83 320 203 231 261 235 270 248 251 255 261 264 265 211 224 236 265 283 297 295 276 276 271 303 344
271 137 270 86 130 137 138 136 162 197 211 237 242 249 244 252 208 290 254 217 247 277 242 225 166 230 231 269 257 215 258 219 221 247 206 281 211 279 229 180 176 140 80 29 152 237 294 193 234 254 268 221 240 202 197 193 183 190 180 210 214 217 257 257 257 149 237 219 248 249 254 239 250 265 269 283 193 212 272 286 303 297 293 294 311 348 18 21
205 187 274 69 157 148 147 181 209 187 228 212 225 203 249 235 262 250 231 256 193 249 11 245 228 245 241 250 253 239 231 236 223 241 215 238 208 232 252 185 233 137 135 195 208 223 204 197 239 241 239 262 263 239 199 192 182 197 184 237 204 228 214 239 261 239 231 224 243 250 271 249 191 232 290 325 305 224 194 161 276 307 330 360 11 21 24 30
221 231 303 214 195 166 155 221 212 219 221 255 360 284 269 295 222 234 250 195 226 198 257 234 225 249 236 249 226 249 203 252 195 241 230 235 244 221 259 312 351 351 340 298 336 287 79 61 1 261 283 287 281 256 68 106 115 347 266 203 151 220 211 231 243 251 250 248 238 253 248 293 20 340 306 333 328 325 324 148 359 25 41 32 19 14 11 8
318 308 320 320 249 332 196 205 215 215 232 255 247 258 237 231 235 265 231 215 191 200 222 235 328 235 270 214 246 246 186 276 191 237 246 235 251 353 24 21 50 213 198 257 130 283 343 250 225 287 279 297 285 319 77 14 41 191 212 228 224 264 316 289 346 50 279 208 245 254 259 239 260 343 351 336 324 319 332 23 49 53 31 34 22 12 8 5
332 276 235 299 342 235 242 214 235 231 232 241 242 249 251 250 206 240 255 254 254 232 305 261 245 10 261 262 274 294 269 231 309 304 201 258 246 15 10 32 23 92 44 312 292 336 205 219 221 248 252 263 271 265 266 262 222 201 289 266 242 216 243 266 261 253 257 232 234 249 265 261 273 326 295 292 325 346 15 34 49 60 43 20 21 15 10 12
300 5 291 356 287 230 261 278 291 239 236 241 240 238 248 253 248 235 187 256 224 242 238 278 266 233 223 276 264 249 258 184 201 254 306 323 287 35 22 25 53 45 20 38 14 12 242 346 235 238 243 254 258 269 280 334 282 253 277 319 298 296 268 249 269 264 254 269 254 253 265 280 278 287 325 12 10 6 354 8 27 28 33 31 20 14 9 8
307 140 274 295 310 245 254 344 320 268 233 354 271 159 231 248 266 282 182 259 223 223 239 210 227 239 242 229 241 258 247 259 226 238 239 248 293 273 312 114 68 40 15 39 351 76 330 243 248 263 260 265 272 277 293 301 289 286 279 274 280 275 270 265 254 258 279 285 264 262 279 280 284 313 33 10 4 356 0 0 7 18 24 25 12 8 9 10
82 260 50 241 229 257 270 262 9 302 326 340 291 336 284 281 278 267 338 251 312 30 225 354 275 229 249 249 264 262 185 248 214 241 39 52 350 330 360 343 77 27 51 30 319 100 228 263 286 274 270 272 291 302 308 300 284 293 289 290 280 279 277 270 264 268 271 255 274 290 285 284 292 25 50 29 346 358 339 343 358 351 3 21 20 16 15 9
127 297 258 297 100 266 359 313 337 320 326 281 294 276 268 261 265 255 241 303 18 302 200 258 215 26 13 360 311 253 245 264 242 94 150 33 67 327 357 342 96 47 24 3 352 201 308 250 250 289 311 316 297 293 297 293 297 292 291 286 286 282 275 269 272 277 279 278 279 280 280 279 18 105 31 96 337 314 328 314 335 6 4 7 9 9 12 1
292 169 297 18 146 315 302 316 314 314 309 271 273 213 262 266 276 306 294 232 252 251 213 214 97 35 12 20 359 325 340 331 320 222 153 123 340 96 207 236 280 2 17 355 321 298 268 295 346 335 305 291 291 287 284 279 290 291 292 295 286 275 271 270 282 277 270 269 270 267 265 269 83 43 353 340 260 268 295 334 6 12 355 1 1 357 356 354
238 76 331 18 328 233 124 356 250 275 266 209 236 278 251 269 280 4 282 348 299 213 31 43 4 5 341 86 11 320 348 46 42 34 4 13 194 304 67 275 63 334 321 298 344 321 345 267 302 303 302 288 292 289 285 292 291 287 284 283 277 272 273 270 262 256 259 272 279 285 277 269 48 323 233 287 337 348 7 321 329 322 346 349 350 349 341 340
63 298 100 134 243 274 94 286 99 269 247 259 251 300 60 71 55 335 346 68 72 86 92 56 1 6 310 329 322 46 93 308 266 257 202 224 215 241 208 221 252 246 292 283 250 278 246 286 299 304 289 271 278 279 295 300 302 286 264 253 259 270 264 266 263 311 357 70 267 265 285 95 248 293 315 319 352 330 326 321 307 267 286 320 330 321 323 322